Regional Weather Roundup
Issued by NWS Burlington, VT

Home | Current Version | Previous Version | Text Only | Print | Product List | Glossary On
Versions: 1 2 3 4 5 6 7 8 9 10 11 12 13 14 15 16 17 18 19 20 21 22 23 24 25 26 27 28 29 30 31 32 33 34 35 36 37 38 39 40 41 42 43 44 45 46 47 48 49 50
548
ASUS41 KBTV 261830
RWRBTV
VERMONT REGIONAL WEATHER ROUNDUP
NATIONAL WEATHER SERVICE BURLINGTON VT
200 PM EDT SUN JUN 26 2016

NOTE: "FAIR" INDICATES FEW OR NO CLOUDS BELOW 12,000 FEET WITH NO
SIGNIFICANT WEATHER AND/OR OBSTRUCTIONS TO VISIBILITY.

* THESE REPORTS ARE NOT UNDER NWS QUALITY CONTROL AND/OR DO NOT
  REPORT WEATHER SUCH AS PRECIPITATION AND FOG.

VTZ001>019-261900-
_____VERMONT_____


CITY           SKY/WX    TMP DP  RH WIND       PRES   REMARKS
BURLINGTON     FAIR      89  59  36 S12G20    30.09F
6HR MIN TEMP:  74; 6HR MAX TEMP:  89;

MONTPELIER     FAIR      83  56  39 SW8       30.18F
6HR MIN TEMP:  63; 6HR MAX TEMP:  84;

MORRISVILLE    FAIR      87  54  32 SW8       30.12F
6HR MIN TEMP:  62; 6HR MAX TEMP:  87;

ST. JOHNSBURY*   N/A     85  55  35 MISG      30.11F
6HR MIN TEMP:  62; 6HR MAX TEMP:  85;

LYNDONVILLE*   FAIR      83  57  41 E7        30.16F
6HR MIN TEMP:  63; 6HR MAX TEMP:  84;

MIDDLEBURY*    FAIR      87  56  33 S12G17    30.11F
6HR MIN TEMP:  73; 6HR MAX TEMP:  87;

RUTLAND*       FAIR      83  58  42 SW8       30.15F
6HR MIN TEMP:  65; 6HR MAX TEMP:  85;

SPRINGFIELD    CLOUDY    84  55  36 N3        30.14F
6HR MIN TEMP:  62; 6HR MAX TEMP:  86;

HIGHGATE*      FAIR      87  64  45 S8        30.07F
6HR MIN TEMP:  72; 6HR MAX TEMP:  88;

NEWPORT*       FAIR      85  57  38 SW9       30.13S
6HR MIN TEMP:  68; 6HR MAX TEMP:  85;

BENNINGTON     FAIR      86  58  38 CALM      30.16F
6HR MIN TEMP:  67; 6HR MAX TEMP:  87;

SUTTON*          N/A     82 N/A N/A MISG        N/A
GALLUP MILLS*    N/A     84 N/A N/A MISG        N/A
UNION VILLAGE*   N/A     88 N/A N/A MISG        N/A
MT. MANSFIELD*   N/A     73 N/A N/A W12         N/A

_____LAKE CHAMPLAIN_____


CITY           SKY/WX    TMP DP  RH WIND       PRES   REMARKS
BURTON ISLAND*   N/A     77  64  65 S10         N/A
COLCHESTER RF*   N/A     77  64  65 S16         N/A
DIAMOND ISL*     N/A     82  63  51 S7          N/A

$$

NYZ007-026>031-035-052-083-087-261900-
_____NORTHERN NEW YORK_____


CITY           SKY/WX    TMP DP  RH WIND       PRES   REMARKS
PLATTSBURGH    SUNNY     83  64  52 SE15      30.07F
6HR MIN TEMP:  69; 6HR MAX TEMP:  84;

SARANAC LAKE   SUNNY     84  56  38 SW10G17   30.13F
MASSENA        MOSUNNY   89  62  40 SW14      30.06F
6HR MIN TEMP:  67; 6HR MAX TEMP:  90;

OGDENSBURG*    SUNNY     88  63  42 SW15G23   30.05F
STARK FALLS*     N/A    111 N/A N/A SW10        N/A
WATERTOWN      MOSUNNY   89  61  38 SW10G20   30.07F
6HR MIN TEMP:  74; 6HR MAX TEMP:  89;

FT DRUM        MOSUNNY   87  64  46 SW10G18   30.08F
6HR MIN TEMP:  73; 6HR MAX TEMP:  87;

ALBANY         PTSUNNY   88  54  31 S7        30.14F
6HR MIN TEMP:  70; 6HR MAX TEMP:  89;

GLENS FALLS    SUNNY     87  63  44 S13       30.12F
6HR MIN TEMP:  69; 6HR MAX TEMP:  87;


$$
NHZ002-005-011-261900-
_____NEW HAMPSHIRE_____


CITY           SKY/WX    TMP DP  RH WIND       PRES   REMARKS
LEBANON        SUNNY     88  57  34 S12       30.13F
6HR MIN TEMP:  65; 6HR MAX TEMP:  88;

KEENE          SUNNY     88  50  27 NE3       30.16S
6HR MIN TEMP:  63; 6HR MAX TEMP:  88;

MT WASHINGTON  PTSUNNY   61  48  63 VRB2        N/A
6HR MIN TEMP:  52; 6HR MAX TEMP:  62;

PLYMOUTH       FAIR      87  53  30 CALM      30.13F
6HR MIN TEMP:  60; 6HR MAX TEMP:  88;

WHITEFIELD     SUNNY     87  51  28 W7        30.15F
6HR MIN TEMP:  63; 6HR MAX TEMP:  88;


$$

_____REGIONAL QUEBEC LOCATIONS_____


CITY           SKY/WX    TMP DP  RH WIND       PRES   REMARKS
MONTREAL       PTSUNNY   88  59  37 SW12G18   30.05F
QUEBEC CITY    PTSUNNY   86  55  35 SW16      30.06F
SHERBROOKE     SUNNY     86  55  35 W8G20     30.10F

_____REGIONAL ONTARIO LOCATIONS_____


CITY           SKY/WX    TMP DP  RH WIND       PRES   REMARKS
OTTAWA         PTSUNNY   90  61  37 SW20      30.03F

______KEY______
VSB  - VISIBILITY IN MILES
WCI  - WIND CHILL INDEX
HX   - HEAT INDEX
$$
NNNN




USA.gov is the U.S. government's official web portal to all federal, state and local government web resources and services.